OB104 VNKT-VNLK

Flight info

Callsign OB104
Flight time 0h 45m
Altitude 11000
Route IGRIS1C KIMTI DCT VNPL
Aircraft DHC6/L-SDFGR/C

Departure

Time 2026-04-26 21:26
Airport Tribhuvan International Airport (VNKT)

Arrival

Time 2026-04-26 22:12
Airport Tenzing-Hillary Airport (VNLK)
Time Latitude Longitude Altitude Speed Heading
2026-04-26 21:26 27.76231 85.32107 11992 ft 174 kts 67°
2026-04-26 21:26 27.76470 85.33465 11998 ft 179 kts 85°
2026-04-26 21:27 27.76454 85.34888 12006 ft 183 kts 91°
2026-04-26 21:27 27.76404 85.36332 11997 ft 185 kts 89°
2026-04-26 21:27 27.76289 85.37778 11999 ft 186 kts 102°
2026-04-26 21:27 27.75830 85.39152 11990 ft 186 kts 117°
2026-04-26 21:28 27.75063 85.40316 12014 ft 185 kts 134°
2026-04-26 21:28 27.74159 85.41365 12011 ft 187 kts 141°
2026-04-26 21:28 27.73130 85.42238 12009 ft 188 kts 148°
2026-04-26 21:28 27.72061 85.43093 12001 ft 189 kts 147°
2026-04-26 21:29 27.71011 85.43994 11997 ft 190 kts 146°
2026-04-26 21:29 27.69962 85.44894 11986 ft 188 kts 146°
2026-04-26 21:29 27.68922 85.45785 11985 ft 188 kts 145°
2026-04-26 21:29 27.67911 85.46711 11993 ft 187 kts 141°
2026-04-26 21:30 27.67005 85.47774 12004 ft 189 kts 134°
2026-04-26 21:30 27.66113 85.48868 12003 ft 190 kts 136°
2026-04-26 21:30 27.65247 85.49993 11985 ft 190 kts 130°
2026-04-26 21:30 27.64479 85.51212 11985 ft 189 kts 122°
2026-04-26 21:31 27.63896 85.52542 11998 ft 190 kts 114°
2026-04-26 21:31 27.63359 85.53904 12003 ft 191 kts 115°
2026-04-26 21:31 27.62821 85.55261 12026 ft 192 kts 114°
2026-04-26 21:31 27.62329 85.56669 12011 ft 193 kts 107°
2026-04-26 21:32 27.61967 85.58138 11996 ft 194 kts 105°
2026-04-26 21:32 27.61594 85.59596 11985 ft 193 kts 107°
2026-04-26 21:32 27.61196 85.61039 11988 ft 192 kts 107°
2026-04-26 21:32 27.60809 85.62484 11995 ft 193 kts 106°
2026-04-26 21:33 27.60427 85.63929 11984 ft 192 kts 106°
2026-04-26 21:33 27.60045 85.65374 11986 ft 192 kts 106°
2026-04-26 21:33 27.59628 85.66794 11973 ft 190 kts 108°
2026-04-26 21:33 27.59243 85.68224 11980 ft 190 kts 106°
2026-04-26 21:34 27.58806 85.69629 11991 ft 190 kts 112°
2026-04-26 21:34 27.58298 85.70979 11977 ft 189 kts 116°
2026-04-26 21:34 27.57699 85.72304 11980 ft 190 kts 119°
2026-04-26 21:34 27.57094 85.73634 11977 ft 191 kts 117°
2026-04-26 21:35 27.56507 85.74987 11972 ft 193 kts 116°
2026-04-26 21:35 27.55918 85.76336 11975 ft 192 kts 117°
2026-04-26 21:35 27.55323 85.77681 11969 ft 191 kts 116°
2026-04-26 21:35 27.54737 85.79027 11980 ft 192 kts 117°
2026-04-26 21:36 27.54142 85.80378 11974 ft 193 kts 117°
2026-04-26 21:36 27.53576 85.81726 11962 ft 191 kts 113°
2026-04-26 21:36 27.53026 85.83097 11980 ft 190 kts 116°
2026-04-26 21:36 27.52503 85.84451 11988 ft 192 kts 110°
2026-04-26 21:37 27.52065 85.85881 11959 ft 193 kts 108°
2026-04-26 21:37 27.51662 85.87324 11974 ft 194 kts 106°
2026-04-26 21:37 27.51375 85.88808 11961 ft 194 kts 96°
2026-04-26 21:37 27.51215 85.90319 11968 ft 194 kts 95°
2026-04-26 21:38 27.51048 85.91835 11964 ft 195 kts 96°
2026-04-26 21:38 27.50913 85.93355 11972 ft 195 kts 91°
2026-04-26 21:38 27.50878 85.94881 11967 ft 195 kts 89°
2026-04-26 21:38 27.50836 85.96412 11964 ft 196 kts 90°
2026-04-26 21:39 27.50765 85.97942 11970 ft 196 kts 91°
2026-04-26 21:39 27.50711 85.99472 11992 ft 196 kts 90°
2026-04-26 21:39 27.50659 86.01004 12022 ft 195 kts 90°
2026-04-26 21:39 27.50595 86.02529 11966 ft 194 kts 90°
2026-04-26 21:40 27.50541 86.04038 11972 ft 192 kts 91°
2026-04-26 21:40 27.50491 86.05522 11978 ft 192 kts 92°
2026-04-26 21:40 27.50424 86.07023 11965 ft 191 kts 92°
2026-04-26 21:40 27.50365 86.08516 11973 ft 190 kts 90°
2026-04-26 21:41 27.50317 86.10007 11990 ft 191 kts 90°
2026-04-26 21:41 27.50261 86.11509 11989 ft 193 kts 91°
2026-04-26 21:41 27.50201 86.13022 11959 ft 193 kts 91°
2026-04-26 21:41 27.50136 86.14514 11964 ft 190 kts 90°
2026-04-26 21:42 27.50085 86.16002 11988 ft 191 kts 90°
2026-04-26 21:42 27.50031 86.17507 11987 ft 193 kts 91°
2026-04-26 21:42 27.49969 86.19023 11980 ft 194 kts 91°
2026-04-26 21:42 27.49908 86.20547 11994 ft 195 kts 90°
2026-04-26 21:43 27.49850 86.22072 11969 ft 195 kts 90°
2026-04-26 21:43 27.49792 86.23590 12000 ft 193 kts 90°
2026-04-26 21:43 27.49739 86.25095 11979 ft 189 kts 88°
2026-04-26 21:43 27.50085 86.26472 11976 ft 181 kts 54°
2026-04-26 21:44 27.50995 86.27350 11975 ft 169 kts 18°
2026-04-26 21:44 27.52110 86.27435 12007 ft 158 kts 339°
2026-04-26 21:44 27.52960 86.26714 12015 ft 155 kts 300°
2026-04-26 21:44 27.53159 86.25551 12033 ft 159 kts 263°
2026-04-26 21:45 27.52862 86.24342 12006 ft 156 kts 262°
2026-04-26 21:45 27.53068 86.23191 11990 ft 156 kts 301°
2026-04-26 21:45 27.53946 86.22490 11985 ft 161 kts 340°
2026-04-26 21:45 27.55074 86.22383 12000 ft 165 kts 356°
2026-04-26 21:46 27.56200 86.22682 12009 ft 170 kts 18°
2026-04-26 21:46 27.57257 86.23322 12014 ft 175 kts 27°
2026-04-26 21:46 27.58282 86.24100 12004 ft 179 kts 31°
2026-04-26 21:46 27.59240 86.25001 12001 ft 181 kts 40°
2026-04-26 21:47 27.59965 86.26153 11986 ft 184 kts 68°
2026-04-26 21:47 27.60035 86.27583 11984 ft 185 kts 103°
2026-04-26 21:47 27.59593 86.28931 12005 ft 181 kts 109°
2026-04-26 21:47 27.59003 86.30168 11998 ft 180 kts 124°
2026-04-26 21:48 27.58299 86.31347 12008 ft 182 kts 126°
2026-04-26 21:48 27.57580 86.32510 12005 ft 184 kts 127°
2026-04-26 21:48 27.56761 86.33584 11976 ft 179 kts 147°
2026-04-26 21:48 27.55797 86.34426 11980 ft 177 kts 129°
2026-04-26 21:49 27.55362 86.35717 11972 ft 179 kts 93°
2026-04-26 21:49 27.55616 86.37059 11962 ft 174 kts 63°
2026-04-26 21:49 27.56155 86.38290 12001 ft 177 kts 59°
2026-04-26 21:49 27.56751 86.39513 11998 ft 180 kts 57°
2026-04-26 21:50 27.57203 86.40821 12012 ft 183 kts 82°
2026-04-26 21:50 27.57141 86.41787 11997 ft 183 kts 99°
2026-04-26 21:50 27.56763 86.43639 12018 ft 183 kts 102°
2026-04-26 21:50 27.56742 86.45020 12215 ft 172 kts 80°
2026-04-26 21:51 27.56921 86.46338 12053 ft 178 kts 79°
2026-04-26 21:51 27.56996 86.46886 11852 ft 199 kts 79°
2026-04-26 22:03 27.57052 86.47269 11926 ft 192 kts 77°
2026-04-26 22:04 27.57329 86.48638 12276 ft 175 kts 74°
2026-04-26 22:04 27.57472 86.50484 12278 ft 180 kts 95°
2026-04-26 22:04 27.57301 86.51406 12254 ft 182 kts 106°
2026-04-26 22:04 27.56898 86.52761 12266 ft 184 kts 110°
2026-04-26 22:05 27.56431 86.54108 12258 ft 184 kts 110°
2026-04-26 22:05 27.56118 86.55499 12240 ft 184 kts 96°
2026-04-26 22:05 27.56125 86.56939 12234 ft 184 kts 79°
2026-04-26 22:05 27.56403 86.58321 12324 ft 177 kts 71°
2026-04-26 22:06 27.56734 86.59668 12300 ft 181 kts 72°
2026-04-26 22:06 27.57023 86.61057 12328 ft 182 kts 75°
2026-04-26 22:06 27.57216 86.62465 12401 ft 182 kts 82°
2026-04-26 22:06 27.57340 86.63885 12367 ft 183 kts 79°
2026-04-26 22:07 27.57726 86.65223 12359 ft 173 kts 54°
2026-04-26 22:07 27.58550 86.66159 12250 ft 169 kts 34°
2026-04-26 22:07 27.59495 86.66926 12122 ft 160 kts 31°
2026-04-26 22:07 27.60426 86.67533 11863 ft 152 kts 26°
2026-04-26 22:08 27.61400 86.67996 11340 ft 151 kts 15°
2026-04-26 22:08 27.62373 86.68377 11220 ft 140 kts 17°
2026-04-26 22:08 27.63228 86.68769 11066 ft 132 kts 19°
2026-04-26 22:08 27.64116 86.69101 10744 ft 138 kts 13°
2026-04-26 22:09 27.65030 86.69348 10655 ft 134 kts 10°
2026-04-26 22:09 27.65982 86.69507 10389 ft 137 kts
2026-04-26 22:09 27.66844 86.69794 10375 ft 125 kts 27°
2026-04-26 22:09 27.67377 86.70513 10070 ft 117 kts 54°
2026-04-26 22:10 27.67769 86.71255 9567 ft 105 kts 59°
2026-04-26 22:10 27.68142 86.71911 9199 ft 95 kts 57°
2026-04-26 22:10 27.68460 86.72539 9083 ft 83 kts 58°
2026-04-26 22:10 27.68675 86.72624 9152 ft 855 kts 106°
2026-04-26 22:11 27.68889 86.70248 10320 ft 164 kts 107°
2026-04-26 22:11 27.68269 86.70804 10288 ft 104 kts 154°
2026-04-26 22:11 27.68102 86.71512 9803 ft 97 kts 70°
2026-04-26 22:11 27.68333 86.72292 9153 ft 96 kts 63°
2026-04-26 22:12 27.68652 86.72904 9220 ft 73 kts 59°
2026-04-26 22:12 27.68771 86.73137 9334 ft 6 kts 87°
2026-04-26 22:12 27.68746 86.73177 9333 ft 4 kts 148°
2026-04-26 22:12 27.68741 86.73206 9332 ft 0 kts 42°
2026-04-26 22:13 27.68749 86.73199 9333 ft 0 kts 258°
2026-04-26 22:13 27.68748 86.73197 9333 ft 0 kts 235°
2026-04-26 22:22 27.68748 86.73198 9332 ft 0 kts 235°
2026-04-26 22:36 27.68745 86.73189 9283 ft 3 kts 245°
2026-04-26 22:37 27.68747 86.73172 9284 ft 3 kts 312°
2026-04-26 22:37 27.68764 86.73162 9275 ft 2 kts 348°
2026-04-26 22:37 27.68768 86.73161 9278 ft 1 kts 346°
2026-04-26 22:37 27.68778 86.73157 9278 ft 2 kts 342°
2026-04-26 22:38 27.68767 86.73137 9270 ft 0 kts 213°
2026-04-26 22:38 27.68765 86.73135 9268 ft 0 kts 205°
2026-04-26 22:38 27.68757 86.73132 9267 ft 3 kts 194°
2026-04-26 22:39 27.68763 86.73133 9269 ft 4 kts 39°
2026-04-26 22:39 27.68772 86.73140 9277 ft 5 kts 58°
2026-04-26 22:39 27.68782 86.73163 9279 ft 3 kts 81°
2026-04-26 22:40 27.68783 86.73158 9279 ft 0 kts 241°
2026-04-26 22:42 27.68781 86.73154 9279 ft 2 kts 240°
2026-04-26 22:42 27.68767 86.73129 9260 ft 6 kts 234°
2026-04-26 22:42 27.68728 86.73067 9227 ft 16 kts 244°
2026-04-26 22:42 27.68654 86.72964 9239 ft 19 kts 245°
2026-04-26 22:43 27.68536 86.72885 9290 ft 22 kts 227°
2026-04-26 22:43 27.68384 86.72816 9374 ft 27 kts 224°
2026-04-26 22:43 27.68163 86.72677 9424 ft 51 kts 218°
2026-04-26 22:43 27.67706 86.72410 9386 ft 92 kts 210°
2026-04-26 22:44 27.67089 86.72074 9550 ft 104 kts 212°
2026-04-26 22:44 27.66432 86.71551 9491 ft 123 kts 221°
2026-04-26 22:44 27.65654 86.71014 9341 ft 139 kts 205°
2026-04-26 22:44 27.65029 86.70757 9198 ft 150 kts 204°